Regional Weather Roundup
Issued by NWS

Home | Current Version | Previous Version | Text Only | Print | Product List | Glossary On
Versions: 1 2 3 4 5 6 7 8 9 10 11 12 13 14 15 16 17 18 19 20 21 22 23 24 25 26 27 28 29 30 31 32 33 34 35 36 37 38 39 40 41 42 43 44 45 46 47 48 49 50
000
ASUS45 KPSR 301310
RWRAZ

ARIZONA HOURLY REGIONAL WEATHER ROUNDUP
NATIONAL WEATHER SERVICE PHOENIX AZ
600 AM MST SUN AUG 30 2015

NOTE: FAIR INDICATES FEW OR NO CLOUDS BELOW 12,000 FEET WITH NO
SIGNIFICANT WEATHER AND/OR OBSTRUCTIONS TO VISIBILITY.

AZZ001>003-036-301400-
NORTHWEST ARIZONA

CITY           SKY/WX    TMP DP  RH WIND       PRES   REMARKS
BULLHEAD CITY  CLEAR     90  45  20 CALM      29.79R
KINGMAN        CLEAR     72  55  55 E6        30.00R
$$

AZZ004>008-015-016-018-301400-
NORTH CENTRAL ARIZONA

CITY           SKY/WX    TMP DP  RH WIND       PRES   REMARKS
GRAND CANYON   CLEAR     48  43  82 CALM      30.27R
WILLIAMS       CLEAR     55  50  82 SE8       30.33R
PRESCOTT       MOCLDY    66  57  72 E3        30.17R
FLAGSTAFF      CLEAR     51  48  89 CALM      30.32R
PAYSON         PTCLDY    64  54  68 CALM      30.21R
PAGE           CLEAR     77  49  37 SW5       30.06R
$$

AZZ009>014-017-301400-
NORTHEAST ARIZONA

CITY           SKY/WX    TMP DP  RH WIND       PRES   REMARKS
WINSLOW        MOCLDY    65  52  62 E5        30.17R
SAINT JOHNS    CLEAR     59  53  80 CALM      30.23R
WINDOW ROCK    CLEAR     50  45  83 CALM      30.31R
SHOW LOW       CLEAR     59  46  63 S12       30.28R
$$

AZZ023-301400-
GREATER PHOENIX AREA

CITY           SKY/WX    TMP DP  RH WIND       PRES   REMARKS
PHOENIX        PTCLDY    83  69  62 E6        29.85R
BUCKEYE        CLOUDY    84  59  42 N3        29.85R
LUKE AFB       PTCLDY    85  66  52 NW5       29.86R
DEER VALLEY    PTCLDY    85  59  41 E6        29.88R
SCOTTSDALE     PTCLDY    84  64  50 CALM      29.90R
MESA-FALCON    MOCLDY    86  61  42 N12       29.88
CHANDLER       PTCLDY    79  66  65 NE8       29.88
$$

AZZ027-028-301400-
SOUTHWEST MARICOPA COUNTY AND PINAL COUNTY

CITY           SKY/WX    TMP DP  RH WIND       PRES   REMARKS
CASA GRANDE    PTCLDY    79  61  53 CALM      29.88R
GILA BEND      FAIR      86  55  35 S6        29.82R
$$

AZZ503-504-507>509-301400-
SOUTHEAST ARIZONA

CITY           SKY/WX    TMP DP  RH WIND       PRES   REMARKS
TUCSON         PTCLDY    79  58  48 SE10      30.00R
RYAN FIELD     CLEAR     79  66  65 E3        29.98
NOGALES        PTCLDY    67  58  72 CALM      30.09R
SIERRA VISTA   PTCLDY    66  56  70 W7        30.15S
DOUGLAS        CLEAR     63  59  87 N7        30.11S
SAFFORD        CLEAR     72  56  57 E8        30.04S
$$

AZZ020-021-025-026-031-301400-
SOUTHWEST ARIZONA

CITY           SKY/WX    TMP DP  RH WIND       PRES   REMARKS
YUMA           CLEAR     88  64  44 S3        29.76R
$$

CAZ031-033-041-043-047-048-061-301400-
SOUTHERN CALIFORNIA

CITY           SKY/WX    TMP DP  RH WIND       PRES   REMARKS
DOWNTOWN L.A.  CLEAR     73  65  75 CALM      29.87R
L.A. AIRPORT   PTCLDY    72  67  84 N5        29.87R
SAN DIEGO      CLEAR     73  68  84 CALM      29.89R
BURBANK        CLEAR     74  64  71 CALM      29.89R
ONTARIO        PTCLDY    72  60  66 CALM      29.89S
RIVERSIDE      CLEAR     71  60  68 CALM      29.90R
PALM SPRINGS   CLEAR     85  55  35 CALM      29.79R
EL CENTRO NAS  CLEAR     85  49  28 W5        29.76R
IMPERIAL       CLEAR     87  51  28 SW3       29.74R
BLYTHE         CLEAR     87  54  32 CALM      29.77R
NEEDLES        CLEAR     89  42  19 CALM      29.80R
$$

NVZ020-UTZ003-301400-
SOUTHERN NEVADA-UTAH

CITY           SKY/WX    TMP DP  RH WIND       PRES   REMARKS
LAS VEGAS      PTCLDY    86  43  22 S9        29.83R
SALT LAKE CITY MOCLDY    80  45  28 NW5       29.95R
$$

NMZ009-TXZ055-301400-
NEW MEXICO-WEST TEXAS

CITY           SKY/WX    TMP DP  RH WIND       PRES   REMARKS
ALBUQUERQUE    PTCLDY    64  50  60 N7        30.24R
EL PASO        PTCLDY    69  55  60 E5        30.14R
$$


........................KEY........................
SKY/WX - SKY CONDITION/WEATHER
TMP    - TEMPERATURE IN FAHRENHEIT
DP     - DEW POINT IN FAHRENHEIT
RH     - RELATIVE HUMIDITY IN PERCENT
WIND   - DIRECTION AND SPEED IN MILES PER HOUR (MPH)
VRB    - VARIABLE WIND DIRECTION
PRES   - MEAN SEA LEVEL PRESSURE IN INCHES OF MERCURY
         F - FALLING PRESSURE   R - RISING PRESSURE
         S - STEADY PRESSURE
VSB    - VISIBILITY IN MILES
HX     - HEAT INDEX IN FAHRENHEIT
WCI    - WIND CHILL INDEX IN FAHRENHEIT
TC     - TEMPERATURE IN CELSIUS WHICH IS ALSO KNOWN AS
         TEMPERATURE IN CENTIGRADE
AFB    - AIR FORCE BASE
         LUKE AFB IS LUKE AIR FORCE BASE
         DAVIS-MONTHAN IS DAVIS-MONTHAN AIR FORCE BASE
NAS    - NAVAL AIR STATION
         EL CENTRO NAS IS EL CENTRO NAVAL AIR STATION
N/A    - NOT AVAILABLE



USA.gov is the U.S. government's official web portal to all federal, state and local government web resources and services.